User: anonymous   Login
Location: Ostrava
(49.8330°N, 18.2830°E)
Time: 06:49:35
(UTC+01:00)
Language:

NOAA 19 - Orbit

View from above orbital plane
View from above orbital plane
View from above satellite
View from above satellite

Ground track
Ground track

The orbit data is extracted from the following two-line orbital elements,

1 33591U 09005A   17017.56599749  .00000079  00000-0  68158-4 0  9993
2 33591  99.0720 342.4243 0013736 339.8528  20.2099 14.12145202409399
Epoch (UTC): 17 January 2017 13:35:02
Eccentricity: 0.0013736
inclination: 99.0720°
perigee height: 842 km
apogee height: 862 km
right ascension of ascending node: 342.4243°
argument of perigee: 339.8528°
revolutions per day: 14.12145202
mean anomaly at epoch: 20.2099°
orbit number at epoch: 40939

The dashed part of the orbit path shows where the satellite is in the earth's shadow,  

DLR